4XCWR LLMZ-LLIB

Flight info

Callsign 4XCWR
Flight time N/A
Altitude 4000
Route MMORR ARRAD TARAD MYTAR SOKET LAHAV BKAMA NOAAM REVAH HODYA NITZA ZDAFA NMASD ZASHD YAVNE NAGID BOVED NTAIM MRISN LLBG PARDS ROKCH RIDNG HTZUK ARENA APOLN SFAIM VINGT PELEG SHARO HADRA EIRON ZMGID AFULA TAVOR DESHE AMNON LLIB AMNON DESHE ZALMN SEGEV EVLYM GILAM LLHA GALIM DAROM HOTRM BOREN FRDIS HADRA SHARO DEROR BAZRA
Aircraft C172/L-SD/C

Departure

Time N/A
Airport Bar Yehuda Airfield (LLMZ)

Arrival

Time 2026-04-22 11:53
Airport Rosh Pina Airport (LLIB)
Time Latitude Longitude Altitude Speed Heading
2026-04-22 11:39 32.64240 35.34363 2592 ft 110 kts 70°
2026-04-22 11:39 32.64465 35.35262 2610 ft 113 kts 72°
2026-04-22 11:39 32.64748 35.36201 2491 ft 122 kts 67°
2026-04-22 11:40 32.65026 35.37119 2436 ft 113 kts 68°
2026-04-22 11:40 32.65228 35.38031 2540 ft 112 kts 70°
2026-04-22 11:40 32.65577 35.38830 2490 ft 110 kts 41°
2026-04-22 11:40 32.66154 35.39470 2461 ft 111 kts 31°
2026-04-22 11:41 32.66718 35.40120 2483 ft 117 kts 44°
2026-04-22 11:41 32.67263 35.40883 2471 ft 123 kts 47°
2026-04-22 11:41 32.67791 35.41673 2457 ft 120 kts 35°
2026-04-22 11:41 32.68493 35.42142 2473 ft 111 kts 15°
2026-04-22 11:42 32.69216 35.42527 2529 ft 117 kts 21°
2026-04-22 11:42 32.69950 35.42926 2434 ft 118 kts 20°
2026-04-22 11:42 32.70686 35.43308 2415 ft 114 kts 18°
2026-04-22 11:42 32.71391 35.43689 2538 ft 108 kts 22°
2026-04-22 11:43 32.72070 35.44125 2502 ft 114 kts 22°
2026-04-22 11:43 32.72750 35.44598 2516 ft 111 kts 24°
2026-04-22 11:43 32.73428 35.45074 2473 ft 118 kts 28°
2026-04-22 11:43 32.74131 35.45543 2495 ft 114 kts 25°
2026-04-22 11:44 32.74816 35.46012 2518 ft 112 kts 27°
2026-04-22 11:44 32.75505 35.46457 2453 ft 112 kts 22°
2026-04-22 11:44 32.76202 35.46894 2466 ft 111 kts 20°
2026-04-22 11:44 32.76870 35.47349 2476 ft 109 kts 25°
2026-04-22 11:45 32.77564 35.47663 2477 ft 100 kts 10°
2026-04-22 11:45 32.78233 35.47843 2575 ft 99 kts
2026-04-22 11:45 32.78936 35.47983 2521 ft 106 kts
2026-04-22 11:45 32.79688 35.48097 2389 ft 106 kts
2026-04-22 11:46 32.80380 35.48302 2451 ft 102 kts 11°
2026-04-22 11:46 32.81051 35.48584 2449 ft 109 kts 18°
2026-04-22 11:46 32.81751 35.48973 2487 ft 115 kts 25°
2026-04-22 11:46 32.82423 35.49525 2519 ft 115 kts 33°
2026-04-22 11:47 32.83094 35.50112 2533 ft 119 kts 34°
2026-04-22 11:47 32.83771 35.50715 2402 ft 119 kts 33°
2026-04-22 11:47 32.84437 35.51255 2524 ft 112 kts 28°
2026-04-22 11:47 32.85135 35.51718 2491 ft 122 kts 27°
2026-04-22 11:48 32.85884 35.52194 2453 ft 124 kts 27°
2026-04-22 11:48 32.86624 35.52701 2447 ft 122 kts 27°
2026-04-22 11:48 32.87320 35.53285 2467 ft 122 kts 36°
2026-04-22 11:48 32.87933 35.53944 2608 ft 116 kts 43°
2026-04-22 11:49 32.88546 35.54634 2508 ft 127 kts 36°
2026-04-22 11:49 32.89245 35.55251 2490 ft 122 kts 33°
2026-04-22 11:49 32.89964 35.55698 2578 ft 112 kts 14°
2026-04-22 11:49 32.90729 35.55968 2484 ft 118 kts 15°
2026-04-22 11:50 32.91517 35.56210 2352 ft 115 kts
2026-04-22 11:50 32.92294 35.56216 2454 ft 106 kts 355°
2026-04-22 11:50 32.93058 35.56234 2384 ft 115 kts
2026-04-22 11:50 32.93812 35.56480 2458 ft 110 kts 19°
2026-04-22 11:51 32.94523 35.56867 2454 ft 116 kts 26°
2026-04-22 11:51 32.95148 35.57373 2431 ft 98 kts 41°
2026-04-22 11:51 32.95618 35.57894 2292 ft 86 kts 38°
2026-04-22 11:51 32.96154 35.58045 2073 ft 79 kts
2026-04-22 11:52 32.96693 35.58132 1796 ft 74 kts 330°
2026-04-22 11:52 32.97146 35.57836 1462 ft 76 kts 326°
2026-04-22 11:52 32.97604 35.57527 1117 ft 72 kts 323°
2026-04-22 11:52 32.98012 35.57246 958 ft 56 kts 327°
2026-04-22 11:53 32.98230 35.57092 955 ft 9 kts 306°
2026-04-22 11:53 32.98230 35.57115 955 ft 13 kts 155°
2026-04-22 11:53 32.98114 35.57178 956 ft 22 kts 150°
2026-04-22 11:53 32.97967 35.57277 955 ft 24 kts 150°
2026-04-22 11:54 32.97844 35.57356 951 ft 16 kts 176°
2026-04-22 11:54 32.97789 35.57319 953 ft 6 kts 179°
2026-04-22 11:54 32.97766 35.57347 953 ft 0 kts 56°
2026-04-22 11:54 32.97745 35.57350 951 ft 11 kts 219°
2026-04-22 11:55 32.97708 35.57353 947 ft 0 kts 41°